Location: Burera
(21.3780°N, 81.9534°E)
Time: 12:25:37
(UTC+00:00)

CZ-4B R/B - Pass Details

Date: 13 August 2020
Orbit: 486 x 653 km, 97.9° (Epoch: 21 September)

Event Time Altitude Azimuth Distance (km) Brightness Sun altitude
Rises 23:11:12 0° 16° (NNE) 2,942 7.1 -13.9°
Reaches altitude 10° 23:13:28 10° 19° (NNE) 2,015 6.3 -13.4°
Maximum altitude 23:17:50 64° 101° (E) 680 3.5 -12.4°
Drops below altitude 10° 23:21:59 10° 183° (S) 1,922 5.4 -11.5°
Sets 23:24:06 0° 186° (S) 2,794 6.2 -11.1°
